STARLINK-3149 (49423 NORAD) Tracking and Keplerian Element Data

This shows tracking and keplerian element data for the satellite.

Feedback or suggestion? Click here.




ElementValue
Catalog49423
NameSTARLINK-3149
Epoch Orbit365
Epoch Day15.91668981
Epoch Year2022
RAAN185.3591
Inclination53.2173
Eccentricity0.0001408
Argument of Perigee60.2876
Mean Anonmoly69.2735
Mean Motion15.2535577
Decay Rate-0.00652604
L11 49423U 21104R 22015.91668981 -.00652604 00000+0 -27502-1 0 9999
L22 49423 53.2173 185.3591 0001408 60.2876 69.2735 15.25355770 3655

Live tracking and technical data element details for STARLINK-3149 (NORAD 49423). STARLINK-3149 can be tracked NOW for your location showing map with azimuth and elevation plus other details from your city location.

Track the satellite on the map from your city or location and see movement details for azimuth, elevation, latitude, longitude, range, height, and movement on the map or in text.







IsCatalogInMostPopularTable: catalog: 49423, numindb: 5
Update: records affected: 1



GetName: 49423 STARLINK-3149

Hit Count: updated at: Thu, 20 Jan 2022 17:34:07 GMT